contact:dominique.lefevre@mio.osupytheas.fr, maurice.libes@osupytheas.fr, didier.mallarino@osupytheas.fr
Project:EMSO http://www.emso-fr.org/EMSO-France
Depth: 2436.0 m
Title:EMSO Ligure Ouest : Data MII capteur MICROCAT
DateTime_Computer,Latitude,Longitude,Temperature,Conductivity,Pressure,DateTime_Instrument
DateTime_Computer,Latitude,Longitude,degC,S m-1,dbar,DateTime_Instrument
2023-04-29T00:00:40Z,42.805,6.029,13.3029,4.60084,2470.74,2023-4-29T02:03:44Z
2023-04-29T00:03:43Z,42.805,6.029,13.3031,4.60096,2470.717,2023-4-29T02:06:47Z
2023-04-29T00:06:46Z,42.805,6.029,13.3031,4.60096,2470.754,2023-4-29T02:09:50Z
2023-04-29T00:09:49Z,42.805,6.029,13.3033,4.60099,2470.763,2023-4-29T02:12:53Z
2023-04-29T00:12:52Z,42.805,6.029,13.3028,4.60095,2470.763,2023-4-29T02:15:56Z
2023-04-29T00:15:55Z,42.805,6.029,13.3030,4.60093,2470.74,2023-4-29T02:18:59Z
2023-04-29T00:18:58Z,42.805,6.029,13.3031,4.60100,2470.74,2023-4-29T02:22:02Z
2023-04-29T00:22:01Z,42.805,6.029,13.3028,4.60092,2470.777,2023-4-29T02:25:05Z
2023-04-29T00:25:04Z,42.805,6.029,13.3029,4.60085,2470.754,2023-4-29T02:28:09Z
2023-04-29T00:28:07Z,42.805,6.029,13.3036,4.60094,2470.717,2023-4-29T02:31:12Z
2023-04-29T00:31:10Z,42.805,6.029,13.3031,4.60092,2470.763,2023-4-29T02:34:15Z
2023-04-29T00:34:13Z,42.805,6.029,13.3034,4.60101,2470.754,2023-4-29T02:37:18Z
2023-04-29T00:37:17Z,42.805,6.029,13.3032,4.60098,2470.777,2023-4-29T02:40:21Z
2023-04-29T00:40:20Z,42.805,6.029,13.3031,4.60094,2470.754,2023-4-29T02:43:24Z
2023-04-29T00:43:23Z,42.805,6.029,13.3029,4.60101,2470.717,2023-4-29T02:46:27Z
2023-04-29T00:46:26Z,42.805,6.029,13.3029,4.60093,2470.74,2023-4-29T02:49:30Z
2023-04-29T00:49:29Z,42.805,6.029,13.3035,4.60106,2470.777,2023-4-29T02:52:33Z
2023-04-29T00:52:32Z,42.805,6.029,13.3034,4.60087,2470.74,2023-4-29T02:55:36Z
2023-04-29T00:55:35Z,42.805,6.029,13.3033,4.60089,2470.717,2023-4-29T02:58:39Z
2023-04-29T00:58:38Z,42.805,6.029,13.3033,4.60097,2470.763,2023-4-29T03:01:42Z
2023-04-29T01:01:41Z,42.805,6.029,13.3034,4.60088,2470.763,2023-4-29T03:04:46Z
2023-04-29T01:04:44Z,42.805,6.029,13.3028,4.60089,2470.74,2023-4-29T03:07:49Z
2023-04-29T01:07:47Z,42.805,6.029,13.3031,4.60096,2470.74,2023-4-29T03:10:52Z
2023-04-29T01:10:50Z,42.805,6.029,13.3030,4.60089,2470.73,2023-4-29T03:13:55Z
2023-04-29T01:13:54Z,42.805,6.029,13.3039,4.60101,2470.74,2023-4-29T03:16:58Z
2023-04-29T01:16:57Z,42.805,6.029,13.3038,4.60095,2470.74,2023-4-29T03:20:01Z
2023-04-29T01:20:00Z,42.805,6.029,13.3040,4.60104,2470.777,2023-4-29T03:23:04Z
2023-04-29T01:23:03Z,42.805,6.029,13.3029,4.60092,2470.763,2023-4-29T03:26:07Z
2023-04-29T01:26:06Z,42.805,6.029,13.3029,4.60087,2470.74,2023-4-29T03:29:10Z
2023-04-29T01:29:09Z,42.805,6.029,13.3034,4.60090,2470.777,2023-4-29T03:32:13Z
2023-04-29T01:32:12Z,42.805,6.029,13.3035,4.60097,2470.777,2023-4-29T03:35:16Z
2023-04-29T01:35:15Z,42.805,6.029,13.3033,4.60090,2470.787,2023-4-29T03:38:19Z
2023-04-29T01:38:18Z,42.805,6.029,13.3034,4.60106,2470.777,2023-4-29T03:41:23Z
2023-04-29T01:41:21Z,42.805,6.029,13.3031,4.60099,2470.763,2023-4-29T03:44:26Z
2023-04-29T01:44:24Z,42.805,6.029,13.3031,4.60099,2470.787,2023-4-29T03:47:29Z
2023-04-29T01:47:27Z,42.805,6.029,13.3029,4.60094,2470.787,2023-4-29T03:50:32Z
2023-04-29T01:50:31Z,42.805,6.029,13.3030,4.60088,2470.74,2023-4-29T03:53:35Z
2023-04-29T01:53:34Z,42.805,6.029,13.3034,4.60096,2470.763,2023-4-29T03:56:38Z
2023-04-29T01:56:37Z,42.805,6.029,13.3031,4.60093,2470.763,2023-4-29T03:59:41Z
2023-04-29T01:59:40Z,42.805,6.029,13.3029,4.60088,2470.8,2023-4-29T04:02:44Z
2023-04-29T02:02:43Z,42.805,6.029,13.3037,4.60107,2470.777,2023-4-29T04:05:47Z
2023-04-29T02:05:46Z,42.805,6.029,13.3036,4.60099,2470.777,2023-4-29T04:08:50Z
2023-04-29T02:08:49Z,42.805,6.029,13.3032,4.60090,2470.8,2023-4-29T04:11:53Z
2023-04-29T02:11:52Z,42.805,6.029,13.3036,4.60088,2470.787,2023-4-29T04:14:56Z
2023-04-29T02:14:55Z,42.805,6.029,13.3033,4.60089,2470.777,2023-4-29T04:17:59Z
2023-04-29T02:17:58Z,42.805,6.029,13.3033,4.60088,2470.773,2023-4-29T04:21:03Z
2023-04-29T02:21:01Z,42.805,6.029,13.3029,4.60089,2470.763,2023-4-29T04:24:06Z
2023-04-29T02:24:04Z,42.805,6.029,13.3036,4.60092,2470.787,2023-4-29T04:27:09Z
2023-04-29T02:27:07Z,42.805,6.029,13.3031,4.60089,2470.763,2023-4-29T04:30:12Z
2023-04-29T02:30:11Z,42.805,6.029,13.3031,4.60090,2470.8,2023-4-29T04:33:15Z
2023-04-29T02:33:14Z,42.805,6.029,13.3030,4.60087,2470.8,2023-4-29T04:36:18Z
2023-04-29T02:36:17Z,42.805,6.029,13.3037,4.60101,2470.763,2023-4-29T04:39:21Z
2023-04-29T02:39:20Z,42.805,6.029,13.3032,4.60089,2470.8,2023-4-29T04:42:24Z
2023-04-29T02:42:23Z,42.805,6.029,13.3030,4.60099,2470.754,2023-4-29T04:45:27Z
2023-04-29T02:45:26Z,42.805,6.029,13.3031,4.60091,2470.777,2023-4-29T04:48:30Z
2023-04-29T02:48:29Z,42.805,6.029,13.3033,4.60104,2470.787,2023-4-29T04:51:33Z
2023-04-29T02:51:32Z,42.805,6.029,13.3032,4.60087,2470.8,2023-4-29T04:54:36Z
2023-04-29T02:54:35Z,42.805,6.029,13.3040,4.60102,2470.81,2023-4-29T04:57:40Z
2023-04-29T02:57:38Z,42.805,6.029,13.3034,4.60104,2470.787,2023-4-29T05:00:43Z
2023-04-29T03:00:41Z,42.805,6.029,13.3031,4.60094,2470.81,2023-4-29T05:03:46Z
2023-04-29T03:03:44Z,42.805,6.029,13.3034,4.60085,2470.787,2023-4-29T05:06:49Z
2023-04-29T03:06:47Z,42.805,6.029,13.3034,4.60097,2470.777,2023-4-29T05:09:52Z
2023-04-29T03:09:51Z,42.805,6.029,13.3030,4.60099,2470.763,2023-4-29T05:12:55Z
2023-04-29T03:12:54Z,42.805,6.029,13.3030,4.60096,2470.787,2023-4-29T05:15:58Z
2023-04-29T03:15:57Z,42.805,6.029,13.3032,4.60104,2470.787,2023-4-29T05:19:01Z
2023-04-29T03:19:00Z,42.805,6.029,13.3034,4.60112,2470.787,2023-4-29T05:22:04Z
2023-04-29T03:22:03Z,42.805,6.029,13.3034,4.60097,2470.787,2023-4-29T05:25:07Z
2023-04-29T03:25:06Z,42.805,6.029,13.3036,4.60092,2470.787,2023-4-29T05:28:10Z
2023-04-29T03:28:09Z,42.805,6.029,13.3041,4.60097,2470.8,2023-4-29T05:31:13Z
2023-04-29T03:31:12Z,42.805,6.029,13.3034,4.60097,2470.81,2023-4-29T05:34:16Z
2023-04-29T03:34:15Z,42.805,6.029,13.3031,4.60097,2470.824,2023-4-29T05:37:20Z
2023-04-29T03:37:18Z,42.805,6.029,13.3032,4.60099,2470.787,2023-4-29T05:40:23Z
2023-04-29T03:40:21Z,42.805,6.029,13.3034,4.60089,2470.787,2023-4-29T05:43:26Z
2023-04-29T03:43:24Z,42.805,6.029,13.3031,4.60093,2470.763,2023-4-29T05:46:29Z
2023-04-29T03:46:28Z,42.805,6.029,13.3031,4.60099,2470.763,2023-4-29T05:49:32Z
2023-04-29T03:49:31Z,42.805,6.029,13.3036,4.60100,2470.787,2023-4-29T05:52:35Z
2023-04-29T03:52:34Z,42.805,6.029,13.3036,4.60115,2470.8,2023-4-29T05:55:38Z
2023-04-29T03:55:37Z,42.805,6.029,13.3035,4.60092,2470.8,2023-4-29T05:58:41Z
2023-04-29T03:58:40Z,42.805,6.029,13.3031,4.60112,2470.787,2023-4-29T06:01:44Z
2023-04-29T04:01:43Z,42.805,6.029,13.3033,4.60093,2470.763,2023-4-29T06:04:47Z
2023-04-29T04:04:46Z,42.805,6.029,13.3031,4.60103,2470.787,2023-4-29T06:07:50Z
2023-04-29T04:07:49Z,42.805,6.029,13.3030,4.60087,2470.763,2023-4-29T06:10:53Z
2023-04-29T04:10:52Z,42.805,6.029,13.3035,4.60094,2470.787,2023-4-29T06:13:57Z
2023-04-29T04:13:55Z,42.805,6.029,13.3028,4.60108,2470.763,2023-4-29T06:17:00Z
2023-04-29T04:16:58Z,42.805,6.029,13.3033,4.60107,2470.8,2023-4-29T06:20:03Z
2023-04-29T04:20:01Z,42.805,6.029,13.3035,4.60099,2470.787,2023-4-29T06:23:06Z
2023-04-29T04:23:04Z,42.805,6.029,13.3038,4.60093,2470.787,2023-4-29T06:26:09Z
2023-04-29T04:26:08Z,42.805,6.029,13.3030,4.60091,2470.8,2023-4-29T06:29:12Z
2023-04-29T04:29:11Z,42.805,6.029,13.3039,4.60101,2470.787,2023-4-29T06:32:15Z
2023-04-29T04:32:15Z,42.805,6.029,13.3034,4.60092,2470.81,2023-4-29T06:35:19Z
2023-04-29T04:35:18Z,42.805,6.029,13.3034,4.60089,2470.787,2023-4-29T06:38:22Z
2023-04-29T04:38:21Z,42.805,6.029,13.3034,4.60098,2470.763,2023-4-29T06:41:25Z
2023-04-29T04:41:24Z,42.805,6.029,13.3035,4.60098,2470.787,2023-4-29T06:44:28Z
2023-04-29T04:44:27Z,42.805,6.029,13.3032,4.60102,2470.787,2023-4-29T06:47:31Z
2023-04-29T04:47:30Z,42.805,6.029,13.3034,4.60100,2470.777,2023-4-29T06:50:34Z
2023-04-29T04:50:33Z,42.805,6.029,13.3029,4.60090,2470.787,2023-4-29T06:53:37Z
2023-04-29T04:53:36Z,42.805,6.029,13.3037,4.60094,2470.763,2023-4-29T06:56:41Z
2023-04-29T04:56:39Z,42.805,6.029,13.3034,4.60108,2470.74,2023-4-29T06:59:44Z
2023-04-29T04:59:42Z,42.805,6.029,13.3029,4.60092,2470.74,2023-4-29T07:02:47Z
2023-04-29T05:02:45Z,42.805,6.029,13.3032,4.60107,2470.81,2023-4-29T07:05:50Z
2023-04-29T05:05:48Z,42.805,6.029,13.3029,4.60104,2470.787,2023-4-29T07:08:53Z
2023-04-29T05:08:51Z,42.805,6.029,13.3032,4.60110,2470.787,2023-4-29T07:11:56Z
2023-04-29T05:11:55Z,42.805,6.029,13.3039,4.60098,2470.777,2023-4-29T07:14:59Z
2023-04-29T05:14:58Z,42.805,6.029,13.3028,4.60091,2470.763,2023-4-29T07:18:02Z
2023-04-29T05:18:01Z,42.805,6.029,13.3031,4.60092,2470.777,2023-4-29T07:21:05Z
2023-04-29T05:21:04Z,42.805,6.029,13.3039,4.60110,2470.787,2023-4-29T07:24:08Z
2023-04-29T05:24:07Z,42.805,6.029,13.3038,4.60107,2470.74,2023-4-29T07:27:11Z
2023-04-29T05:27:10Z,42.805,6.029,13.3034,4.60115,2470.787,2023-4-29T07:30:14Z
2023-04-29T05:30:13Z,42.805,6.029,13.3035,4.60102,2470.8,2023-4-29T07:33:17Z
2023-04-29T05:33:16Z,42.805,6.029,13.3044,4.60110,2470.754,2023-4-29T07:36:21Z
2023-04-29T05:36:19Z,42.805,6.029,13.3031,4.60111,2470.763,2023-4-29T07:39:24Z
2023-04-29T05:39:22Z,42.805,6.029,13.3031,4.60094,2470.777,2023-4-29T07:42:27Z
2023-04-29T05:42:25Z,42.805,6.029,13.3032,4.60090,2470.73,2023-4-29T07:45:30Z
2023-04-29T05:45:28Z,42.805,6.029,13.3034,4.60100,2470.754,2023-4-29T07:48:33Z
2023-04-29T05:48:32Z,42.805,6.029,13.3034,4.60110,2470.717,2023-4-29T07:51:36Z
2023-04-29T05:51:35Z,42.805,6.029,13.3036,4.60105,2470.717,2023-4-29T07:54:39Z
2023-04-29T05:54:38Z,42.805,6.029,13.3036,4.60104,2470.754,2023-4-29T07:57:42Z
2023-04-29T05:57:41Z,42.805,6.029,13.3029,4.60093,2470.754,2023-4-29T08:00:45Z
2023-04-29T06:00:44Z,42.805,6.029,13.3039,4.60109,2470.717,2023-4-29T08:03:48Z
2023-04-29T06:03:47Z,42.805,6.029,13.3034,4.60102,2470.763,2023-4-29T08:06:51Z
2023-04-29T06:06:50Z,42.805,6.029,13.3044,4.60110,2470.754,2023-4-29T08:09:54Z
2023-04-29T06:09:53Z,42.805,6.029,13.3032,4.60091,2470.763,2023-4-29T08:12:58Z
2023-04-29T06:12:56Z,42.805,6.029,13.3031,4.60102,2470.74,2023-4-29T08:16:01Z
2023-04-29T06:15:59Z,42.805,6.029,13.3033,4.60109,2470.74,2023-4-29T08:19:04Z
2023-04-29T06:19:02Z,42.805,6.029,13.3039,4.60094,2470.717,2023-4-29T08:22:07Z
2023-04-29T06:22:05Z,42.805,6.029,13.3033,4.60106,2470.74,2023-4-29T08:25:10Z
2023-04-29T06:25:08Z,42.805,6.029,13.3038,4.60094,2470.717,2023-4-29T08:28:13Z
2023-04-29T06:28:12Z,42.805,6.029,13.3039,4.60109,2470.754,2023-4-29T08:31:16Z
2023-04-29T06:31:15Z,42.805,6.029,13.3035,4.60097,2470.74,2023-4-29T08:34:19Z
2023-04-29T06:34:18Z,42.805,6.029,13.3038,4.60099,2470.73,2023-4-29T08:37:22Z
2023-04-29T06:37:21Z,42.805,6.029,13.3031,4.60101,2470.74,2023-4-29T08:40:25Z
2023-04-29T06:40:24Z,42.805,6.029,13.3045,4.60106,2470.74,2023-4-29T08:43:28Z
2023-04-29T06:43:27Z,42.805,6.029,13.3038,4.60102,2470.74,2023-4-29T08:46:31Z
2023-04-29T06:46:30Z,42.805,6.029,13.3035,4.60097,2470.74,2023-4-29T08:49:34Z
2023-04-29T06:49:33Z,42.805,6.029,13.3034,4.60093,2470.74,2023-4-29T08:52:38Z
2023-04-29T06:52:36Z,42.805,6.029,13.3040,4.60112,2470.693,2023-4-29T08:55:41Z
2023-04-29T06:55:39Z,42.805,6.029,13.3036,4.60106,2470.717,2023-4-29T08:58:44Z
2023-04-29T06:58:42Z,42.805,6.029,13.3034,4.60099,2470.693,2023-4-29T09:01:47Z
2023-04-29T07:01:45Z,42.805,6.029,13.3037,4.60100,2470.74,2023-4-29T09:04:50Z
2023-04-29T07:04:48Z,42.805,6.029,13.3036,4.60098,2470.754,2023-4-29T09:07:53Z
2023-04-29T07:07:51Z,42.805,6.029,13.3035,4.60101,2470.73,2023-4-29T09:10:56Z
2023-04-29T07:10:55Z,42.805,6.029,13.3039,4.60114,2470.73,2023-4-29T09:13:59Z
2023-04-29T07:13:58Z,42.805,6.029,13.3039,4.60097,2470.693,2023-4-29T09:17:02Z
2023-04-29T07:17:01Z,42.805,6.029,13.3036,4.60103,2470.717,2023-4-29T09:20:05Z
2023-04-29T07:20:04Z,42.805,6.029,13.3038,4.60099,2470.73,2023-4-29T09:23:08Z
2023-04-29T07:23:07Z,42.805,6.029,13.3036,4.60102,2470.717,2023-4-29T09:26:11Z
2023-04-29T07:26:10Z,42.805,6.029,13.3044,4.60107,2470.74,2023-4-29T09:29:14Z
2023-04-29T07:29:13Z,42.805,6.029,13.3038,4.60107,2470.73,2023-4-29T09:32:18Z
2023-04-29T07:32:16Z,42.805,6.029,13.3040,4.60108,2470.717,2023-4-29T09:35:21Z
2023-04-29T07:35:19Z,42.805,6.029,13.3034,4.60110,2470.74,2023-4-29T09:38:24Z
2023-04-29T07:38:22Z,42.805,6.029,13.3038,4.60094,2470.717,2023-4-29T09:41:27Z
2023-04-29T07:41:25Z,42.805,6.029,13.3034,4.60096,2470.73,2023-4-29T09:44:30Z
2023-04-29T07:44:28Z,42.805,6.029,13.3039,4.60097,2470.717,2023-4-29T09:47:33Z
2023-04-29T07:47:32Z,42.805,6.029,13.3036,4.60116,2470.73,2023-4-29T09:50:36Z
2023-04-29T07:50:35Z,42.805,6.029,13.3040,4.60122,2470.67,2023-4-29T09:53:39Z
2023-04-29T07:53:38Z,42.805,6.029,13.3038,4.60096,2470.693,2023-4-29T09:56:42Z
2023-04-29T07:56:41Z,42.805,6.029,13.3034,4.60101,2470.67,2023-4-29T09:59:45Z
2023-04-29T07:59:44Z,42.805,6.029,13.3038,4.60104,2470.717,2023-4-29T10:02:48Z
2023-04-29T08:02:47Z,42.805,6.029,13.3035,4.60093,2470.707,2023-4-29T10:05:51Z
2023-04-29T08:05:50Z,42.805,6.029,13.3035,4.60109,2470.73,2023-4-29T10:08:55Z
2023-04-29T08:08:53Z,42.805,6.029,13.3036,4.60096,2470.717,2023-4-29T10:11:58Z
2023-04-29T08:11:56Z,42.805,6.029,13.3033,4.60103,2470.707,2023-4-29T10:15:01Z
2023-04-29T08:14:59Z,42.805,6.029,13.3036,4.60116,2470.684,2023-4-29T10:18:04Z
2023-04-29T08:18:02Z,42.805,6.029,13.3038,4.60115,2470.684,2023-4-29T10:21:07Z
2023-04-29T08:21:05Z,42.805,6.029,13.3037,4.60119,2470.707,2023-4-29T10:24:10Z
2023-04-29T08:24:09Z,42.805,6.029,13.3041,4.60114,2470.707,2023-4-29T10:27:13Z
2023-04-29T08:27:12Z,42.805,6.029,13.3036,4.60099,2470.67,2023-4-29T10:30:16Z
2023-04-29T08:30:15Z,42.805,6.029,13.3046,4.60104,2470.67,2023-4-29T10:33:19Z
2023-04-29T08:33:18Z,42.805,6.029,13.3036,4.60107,2470.693,2023-4-29T10:36:22Z
2023-04-29T08:36:21Z,42.805,6.029,13.3045,4.60103,2470.693,2023-4-29T10:39:25Z
2023-04-29T08:39:24Z,42.805,6.029,13.3033,4.60096,2470.67,2023-4-29T10:42:28Z
2023-04-29T08:42:27Z,42.805,6.029,13.3041,4.60090,2470.693,2023-4-29T10:45:32Z
2023-04-29T08:45:30Z,42.805,6.029,13.3038,4.60110,2470.693,2023-4-29T10:48:35Z
2023-04-29T08:48:33Z,42.805,6.029,13.3043,4.60109,2470.67,2023-4-29T10:51:38Z
2023-04-29T08:51:36Z,42.805,6.029,13.3037,4.60109,2470.684,2023-4-29T10:54:41Z
2023-04-29T08:54:39Z,42.805,6.029,13.3036,4.60106,2470.67,2023-4-29T10:57:44Z
2023-04-29T08:57:43Z,42.805,6.029,13.3040,4.60112,2470.661,2023-4-29T11:00:47Z
2023-04-29T09:00:46Z,42.805,6.029,13.3046,4.60095,2470.67,2023-4-29T11:03:50Z
2023-04-29T09:03:49Z,42.805,6.029,13.3032,4.60104,2470.661,2023-4-29T11:06:53Z
2023-04-29T09:06:52Z,42.805,6.029,13.3043,4.60098,2470.684,2023-4-29T11:09:56Z
2023-04-29T09:09:55Z,42.805,6.029,13.3039,4.60110,2470.707,2023-4-29T11:12:59Z
2023-04-29T09:12:58Z,42.805,6.029,13.3043,4.60115,2470.67,2023-4-29T11:16:02Z
2023-04-29T09:16:01Z,42.805,6.029,13.3040,4.60101,2470.67,2023-4-29T11:19:06Z
2023-04-29T09:19:04Z,42.805,6.029,13.3035,4.60097,2470.684,2023-4-29T11:22:09Z
2023-04-29T09:22:07Z,42.805,6.029,13.3039,4.60094,2470.661,2023-4-29T11:25:12Z
2023-04-29T09:25:10Z,42.805,6.029,13.3037,4.60110,2470.646,2023-4-29T11:28:15Z
2023-04-29T09:28:13Z,42.805,6.029,13.3044,4.60107,2470.661,2023-4-29T11:31:18Z
2023-04-29T09:31:16Z,42.805,6.029,13.3039,4.60110,2470.646,2023-4-29T11:34:21Z
2023-04-29T09:34:20Z,42.805,6.029,13.3040,4.60117,2470.624,2023-4-29T11:37:24Z
2023-04-29T09:37:23Z,42.805,6.029,13.3039,4.60086,2470.684,2023-4-29T11:40:27Z
2023-04-29T09:40:26Z,42.805,6.029,13.3034,4.60122,2470.646,2023-4-29T11:43:30Z
2023-04-29T09:43:29Z,42.805,6.029,13.3038,4.60103,2470.67,2023-4-29T11:46:33Z
2023-04-29T09:46:32Z,42.805,6.029,13.3034,4.60104,2470.67,2023-4-29T11:49:36Z
2023-04-29T09:49:35Z,42.805,6.029,13.3047,4.60104,2470.67,2023-4-29T11:52:39Z
2023-04-29T09:52:38Z,42.805,6.029,13.3033,4.60104,2470.646,2023-4-29T11:55:43Z
2023-04-29T09:55:41Z,42.805,6.029,13.3044,4.60098,2470.67,2023-4-29T11:58:46Z
2023-04-29T09:58:44Z,42.805,6.029,13.3039,4.60094,2470.637,2023-4-29T12:01:49Z
2023-04-29T10:01:47Z,42.805,6.029,13.3033,4.60107,2470.67,2023-4-29T12:04:52Z
2023-04-29T10:04:50Z,42.805,6.029,13.3034,4.60111,2470.684,2023-4-29T12:07:55Z
2023-04-29T10:07:53Z,42.805,6.029,13.3043,4.60097,2470.661,2023-4-29T12:10:58Z
2023-04-29T10:10:57Z,42.805,6.029,13.3039,4.60085,2470.67,2023-4-29T12:14:01Z
2023-04-29T10:14:00Z,42.805,6.029,13.3034,4.60090,2470.646,2023-4-29T12:17:04Z
2023-04-29T10:17:03Z,42.805,6.029,13.3037,4.60102,2470.633,2023-4-29T12:20:07Z
2023-04-29T10:20:06Z,42.805,6.029,13.3039,4.60107,2470.684,2023-4-29T12:23:10Z
2023-04-29T10:23:09Z,42.805,6.029,13.3050,4.60103,2470.684,2023-4-29T12:26:13Z
2023-04-29T10:26:12Z,42.805,6.029,13.3037,4.60110,2470.67,2023-4-29T12:29:16Z
2023-04-29T10:29:15Z,42.805,6.029,13.3050,4.60119,2470.67,2023-4-29T12:32:20Z
2023-04-29T10:32:18Z,42.805,6.029,13.3048,4.60105,2470.661,2023-4-29T12:35:23Z
2023-04-29T10:35:21Z,42.805,6.029,13.3034,4.60084,2470.637,2023-4-29T12:38:26Z
2023-04-29T10:38:24Z,42.805,6.029,13.3037,4.60095,2470.624,2023-4-29T12:41:29Z
2023-04-29T10:41:28Z,42.805,6.029,13.3030,4.60106,2470.707,2023-4-29T12:44:32Z
2023-04-29T10:44:31Z,42.805,6.029,13.3041,4.60093,2470.637,2023-4-29T12:47:35Z
2023-04-29T10:47:34Z,42.805,6.029,13.3036,4.60089,2470.661,2023-4-29T12:50:38Z
2023-04-29T10:50:37Z,42.805,6.029,13.3036,4.60102,2470.661,2023-4-29T12:53:41Z
2023-04-29T10:53:40Z,42.805,6.029,13.3039,4.60105,2470.67,2023-4-29T12:56:44Z
2023-04-29T10:56:43Z,42.805,6.029,13.3030,4.60089,2470.67,2023-4-29T12:59:48Z
2023-04-29T10:59:46Z,42.805,6.029,13.3034,4.60110,2470.624,2023-4-29T13:02:51Z
2023-04-29T11:02:49Z,42.805,6.029,13.3044,4.60129,2470.67,2023-4-29T13:05:54Z
2023-04-29T11:05:52Z,42.805,6.029,13.3031,4.60104,2470.661,2023-4-29T13:08:57Z
2023-04-29T11:08:55Z,42.805,6.029,13.3037,4.60115,2470.646,2023-4-29T13:12:00Z
2023-04-29T11:11:58Z,42.805,6.029,13.3048,4.60099,2470.646,2023-4-29T13:15:03Z
2023-04-29T11:15:01Z,42.805,6.029,13.3031,4.60101,2470.661,2023-4-29T13:18:06Z
2023-04-29T11:18:05Z,42.805,6.029,13.3033,4.60099,2470.624,2023-4-29T13:21:09Z
2023-04-29T11:21:08Z,42.805,6.029,13.3035,4.60099,2470.646,2023-4-29T13:24:12Z
2023-04-29T11:24:11Z,42.805,6.029,13.3036,4.60094,2470.624,2023-4-29T13:27:15Z
2023-04-29T11:27:14Z,42.805,6.029,13.3034,4.60089,2470.624,2023-4-29T13:30:18Z
2023-04-29T11:30:17Z,42.805,6.029,13.3034,4.60106,2470.637,2023-4-29T13:33:21Z
2023-04-29T11:33:20Z,42.805,6.029,13.3040,4.60109,2470.6,2023-4-29T13:36:25Z
2023-04-29T11:36:23Z,42.805,6.029,13.3037,4.60099,2470.684,2023-4-29T13:39:28Z
2023-04-29T11:39:26Z,42.805,6.029,13.3042,4.60096,2470.624,2023-4-29T13:42:31Z
2023-04-29T11:42:29Z,42.805,6.029,13.3039,4.60093,2470.646,2023-4-29T13:45:34Z
2023-04-29T11:45:32Z,42.805,6.029,13.3045,4.60109,2470.646,2023-4-29T13:48:37Z
2023-04-29T11:48:35Z,42.805,6.029,13.3039,4.60082,2470.646,2023-4-29T13:51:40Z
2023-04-29T11:51:38Z,42.805,6.029,13.3038,4.60099,2470.624,2023-4-29T13:54:43Z
2023-04-29T11:54:42Z,42.805,6.029,13.3041,4.60095,2470.624,2023-4-29T13:57:46Z
2023-04-29T11:57:45Z,42.805,6.029,13.3033,4.60103,2470.693,2023-4-29T14:00:49Z
2023-04-29T12:00:48Z,42.805,6.029,13.3034,4.60102,2470.661,2023-4-29T14:03:52Z
2023-04-29T12:03:51Z,42.805,6.029,13.3039,4.60094,2470.646,2023-4-29T14:06:55Z
2023-04-29T12:06:54Z,42.805,6.029,13.3033,4.60104,2470.707,2023-4-29T14:09:58Z
2023-04-29T12:09:57Z,42.805,6.029,13.3031,4.60097,2470.67,2023-4-29T14:13:02Z
2023-04-29T12:13:00Z,42.805,6.029,13.3034,4.60094,2470.646,2023-4-29T14:16:05Z
2023-04-29T12:16:03Z,42.805,6.029,13.3036,4.60102,2470.684,2023-4-29T14:19:08Z
2023-04-29T12:19:06Z,42.805,6.029,13.3046,4.60092,2470.646,2023-4-29T14:22:11Z
2023-04-29T12:22:09Z,42.805,6.029,13.3038,4.60096,2470.656,2023-4-29T14:25:14Z
2023-04-29T12:25:12Z,42.805,6.029,13.3037,4.60093,2470.67,2023-4-29T14:28:17Z
2023-04-29T12:28:15Z,42.805,6.029,13.3052,4.60083,2470.661,2023-4-29T14:31:20Z
2023-04-29T12:31:17Z,42.805,6.029,13.3045,4.60114,2470.646,2023-4-29T14:34:22Z
2023-04-29T12:34:20Z,42.805,6.029,13.3031,4.60093,2470.707,2023-4-29T14:37:25Z
2023-04-29T12:37:23Z,42.805,6.029,13.3049,4.60116,2470.67,2023-4-29T14:40:28Z
2023-04-29T12:40:26Z,42.805,6.029,13.3034,4.60084,2470.684,2023-4-29T14:43:31Z
2023-04-29T12:43:29Z,42.805,6.029,13.3034,4.60093,2470.67,2023-4-29T14:46:34Z
2023-04-29T12:46:32Z,42.805,6.029,13.3034,4.60092,2470.646,2023-4-29T14:49:37Z
2023-04-29T12:49:35Z,42.805,6.029,13.3042,4.60093,2470.684,2023-4-29T14:52:40Z
2023-04-29T12:52:39Z,42.805,6.029,13.3033,4.60097,2470.661,2023-4-29T14:55:43Z
2023-04-29T12:55:42Z,42.805,6.029,13.3045,4.60096,2470.684,2023-4-29T14:58:46Z
2023-04-29T12:58:45Z,42.805,6.029,13.3042,4.60091,2470.707,2023-4-29T15:01:49Z
2023-04-29T13:01:48Z,42.805,6.029,13.3037,4.60102,2470.684,2023-4-29T15:04:52Z
2023-04-29T13:04:51Z,42.805,6.029,13.3040,4.60099,2470.646,2023-4-29T15:07:55Z
2023-04-29T13:07:54Z,42.805,6.029,13.3048,4.60101,2470.67,2023-4-29T15:10:59Z
2023-04-29T13:10:57Z,42.805,6.029,13.3037,4.60094,2470.624,2023-4-29T15:14:02Z
2023-04-29T13:14:00Z,42.805,6.029,13.3043,4.60084,2470.684,2023-4-29T15:17:05Z
2023-04-29T13:17:03Z,42.805,6.029,13.3041,4.60091,2470.661,2023-4-29T15:20:08Z
2023-04-29T13:20:06Z,42.805,6.029,13.3036,4.60090,2470.67,2023-4-29T15:23:11Z
2023-04-29T13:23:09Z,42.805,6.029,13.3044,4.60095,2470.67,2023-4-29T15:26:14Z
2023-04-29T13:26:12Z,42.805,6.029,13.3038,4.60094,2470.67,2023-4-29T15:29:17Z
2023-04-29T13:29:16Z,42.805,6.029,13.3032,4.60090,2470.67,2023-4-29T15:32:20Z
2023-04-29T13:32:19Z,42.805,6.029,13.3040,4.60108,2470.693,2023-4-29T15:35:23Z
2023-04-29T13:35:22Z,42.805,6.029,13.3042,4.60095,2470.67,2023-4-29T15:38:26Z
2023-04-29T13:38:25Z,42.805,6.029,13.3046,4.60096,2470.693,2023-4-29T15:41:29Z
2023-04-29T13:41:28Z,42.805,6.029,13.3035,4.60086,2470.633,2023-4-29T15:44:32Z
2023-04-29T13:44:31Z,42.805,6.029,13.3032,4.60087,2470.646,2023-4-29T15:47:36Z
2023-04-29T13:47:34Z,42.805,6.029,13.3040,4.60099,2470.67,2023-4-29T15:50:39Z
2023-04-29T13:50:37Z,42.805,6.029,13.3034,4.60112,2470.67,2023-4-29T15:53:42Z
2023-04-29T13:53:40Z,42.805,6.029,13.3036,4.60087,2470.67,2023-4-29T15:56:45Z
2023-04-29T13:56:43Z,42.805,6.029,13.3032,4.60094,2470.684,2023-4-29T15:59:48Z
2023-04-29T13:59:46Z,42.805,6.029,13.3046,4.60094,2470.67,2023-4-29T16:02:51Z
2023-04-29T14:02:49Z,42.805,6.029,13.3036,4.60089,2470.707,2023-4-29T16:05:54Z
2023-04-29T14:05:53Z,42.805,6.029,13.3046,4.60089,2470.67,2023-4-29T16:08:57Z
2023-04-29T14:08:56Z,42.805,6.029,13.3042,4.60109,2470.707,2023-4-29T16:12:00Z
2023-04-29T14:11:59Z,42.805,6.029,13.3043,4.60096,2470.707,2023-4-29T16:15:03Z
2023-04-29T14:15:02Z,42.805,6.029,13.3036,4.60091,2470.646,2023-4-29T16:18:06Z
2023-04-29T14:18:05Z,42.805,6.029,13.3035,4.60099,2470.646,2023-4-29T16:21:09Z
2023-04-29T14:21:08Z,42.805,6.029,13.3040,4.60094,2470.693,2023-4-29T16:24:13Z
2023-04-29T14:24:11Z,42.805,6.029,13.3029,4.60091,2470.693,2023-4-29T16:27:16Z
2023-04-29T14:27:14Z,42.805,6.029,13.3034,4.60090,2470.656,2023-4-29T16:30:19Z
2023-04-29T14:30:17Z,42.805,6.029,13.3036,4.60087,2470.674,2023-4-29T16:33:22Z
2023-04-29T14:33:20Z,42.805,6.029,13.3039,4.60085,2470.684,2023-4-29T16:36:25Z
2023-04-29T14:36:23Z,42.805,6.029,13.3040,4.60084,2470.684,2023-4-29T16:39:28Z
2023-04-29T14:39:26Z,42.805,6.029,13.3034,4.60099,2470.693,2023-4-29T16:42:31Z
2023-04-29T14:42:30Z,42.805,6.029,13.3047,4.60085,2470.707,2023-4-29T16:45:34Z
2023-04-29T14:45:33Z,42.805,6.029,13.3040,4.60092,2470.684,2023-4-29T16:48:37Z
2023-04-29T14:48:36Z,42.805,6.029,13.3029,4.60083,2470.707,2023-4-29T16:51:40Z
2023-04-29T14:51:39Z,42.805,6.029,13.3028,4.60084,2470.717,2023-4-29T16:54:43Z
2023-04-29T14:54:42Z,42.805,6.029,13.3032,4.60081,2470.693,2023-4-29T16:57:46Z
2023-04-29T14:57:45Z,42.805,6.029,13.3035,4.60089,2470.684,2023-4-29T17:00:50Z
2023-04-29T15:00:48Z,42.805,6.029,13.3034,4.60091,2470.646,2023-4-29T17:03:53Z
2023-04-29T15:03:51Z,42.805,6.029,13.3031,4.60084,2470.693,2023-4-29T17:06:56Z
2023-04-29T15:06:54Z,42.805,6.029,13.3028,4.60093,2470.661,2023-4-29T17:09:59Z
2023-04-29T15:09:57Z,42.805,6.029,13.3027,4.60090,2470.707,2023-4-29T17:13:02Z
2023-04-29T15:13:00Z,42.805,6.029,13.3035,4.60098,2470.67,2023-4-29T17:16:05Z